Location: *
(33.8649°S, 62.1526°E)
Time: 13:03:25
(UTC+00:00)

COSMOS 2406 - Pass Details

Date: 17 January 2021
Orbit: 841 x 865 km, 71.0° (Epoch: 02 March)

Event Time Altitude Azimuth Distance (km) Brightness Sun altitude
Exits shadow 18:36:03 40° 143° (SE) 1,242 4.2 -31.9°
Drops below altitude 10° 18:39:42 10° 154° (SSE) 2,495 6.1 -32.2°
Sets 18:42:10 0° 156° (SSE) 3,434 6.9 -32.4°
